Hourly Data Report for September 29, 2017

All times are specified in Local Standard Time (LST). Add 1 hour to adjust for Daylight Saving Time where and when it is observed.

ARCTIC BAY CS
NUNAVUT

72°59'34.000" N
85°00'44.000" W
10.00 m
2400404
71592
XAT

Download Data

Hourly Data (September 2017)
Hourly Data Report for September 29, 2017
Temp Definition
°C
Dew Point Temp Definition
°C
Rel Hum Definition
%
Wind Dir Definition
10's deg

Wind Spd Definition
km/h
Visibility Definition
km
Stn Press Definition
kPa
Hmdx Definition


Wind Chill Definition


Weather Definition


TIME
00:00 -4.7 -5.5 94 32 35   100.71   -13 LegendNANA
01:00 -4.6 -5.9 91 33 25   100.75   -12 LegendNANA
02:00 -5.3 -7.1 87 34 27   100.79   -13 LegendNANA
03:00 -5.0 -6.6 88 33 25   100.78   -12 LegendNANA
04:00 -4.3 -6.9 82 33 20   100.80   -11 LegendNANA
05:00 -4.9 -9.1 73 34 20   100.79   -11 LegendNANA
06:00 -5.8 -10.5 70 34 18   100.77   -12 LegendNANA
07:00 -6.7 -11.6 68 2 15   100.76   -13 LegendNANA
08:00 -6.7 -10.4 75 36 13   100.72   -12 LegendNANA
09:00 -6.8 -11.6 69 9 11   100.68   -12 LegendNANA
10:00 -7.1 -12.0 68 8 2   100.67   -8 LegendNANA
11:00 -6.6 -11.1 71 7 12   100.68   -12 LegendNANA
12:00 -4.9 -9.7 69 26 5   100.66   -7 LegendNANA
13:00 -4.9 -10.0 68 9 4   100.64   -7 LegendNANA
14:00 -5.2 -9.3 73 7 3   100.62   -7 LegendNANA
15:00 -5.2 -9.1 74 16 3   100.62   -7 LegendNANA
16:00 -5.7 -8.8 79 36 4   100.62   -8 LegendNANA
17:00 -5.3 -8.0 81 8 3   100.61   -7 LegendNANA
18:00 -5.4 -8.1 81 8 9   100.61   -9 LegendNANA
19:00 -5.6 -8.2 82 10 8   100.62   -9 LegendNANA
20:00 -5.2 -7.9 81 8 9   100.63   -9 LegendNANA
21:00 -4.7 -7.4 82 9 7   100.65   -8 LegendNANA
22:00 -4.8 -7.5 81 10 5   100.66   -7 LegendNANA
23:00 -4.1 -7.0 80 9 6   100.69   -7 LegendNANA

Notes on Data Quality.

Legend

  • E = Estimated
  • M = Missing
  • NA = Not Available
  • ‡ = Partner data that is not subject to review by the National Climate Archives
Date modified: